Location: Platte
(43.3870°N, 98.8440°W)
Time: 17:03:11
(UTC-05:00)

Landsat 7 - Visible Passes

Search period start: 29 July 2015 00:00
Search period end: 08 August 2015 00:00
Orbit: 702 x 703 km, 98.2° (Epoch: 29 July)

Date Brightness Start Highest point End Pass type
(mag) Time Alt. Az. Time Alt. Az. Time Alt. Az.
29 Jul 6.2 00:42:58 11° WSW 00:44:28 13° W 00:46:24 10° WNW visible
29 Jul 5.3 22:08:31 13° ESE 22:11:23 22° ENE 22:15:06 10° NNE visible
29 Jul 4.7 23:47:24 33° SW 23:48:54 43° W 23:53:27 10° NNW visible
30 Jul 4.1 22:51:51 31° SE 22:53:54 55° ENE 22:58:34 10° N visible
31 Jul 5.9 00:30:44 15° WSW 00:32:04 17° W 00:35:02 10° NW visible
31 Jul 5.6 21:56:18 10° ESE 21:59:17 18° ENE 22:02:29 10° NNE visible
31 Jul 4.2 23:35:11 40° SSW 23:36:39 57° W 23:41:21 10° NNW visible
01 Aug 4.4 22:39:38 26° ESE 22:41:45 42° ENE 22:46:14 10° N visible
02 Aug 5.6 00:18:31 20° WSW 00:19:43 22° W 00:23:21 10° NW visible
02 Aug 5.8 21:44:56 10° E 21:47:12 14° ENE 21:49:41 10° NNE visible
02 Aug 3.8 23:22:59 45° S 23:24:25 76° WSW 23:29:13 10° NNW visible
03 Aug 4.8 22:27:26 22° ESE 22:29:36 32° ENE 22:33:51 10° N visible
04 Aug 5.2 00:06:19 26° WSW 00:07:24 29° W 00:11:29 10° NW visible
04 Aug 6.0 21:34:14 10° ENE 21:35:09 11° ENE 21:36:19 10° NE visible
04 Aug 3.7 23:10:47 46° SSE 23:12:13 83° ENE 23:17:01 10° NNW visible
05 Aug 6.4 00:49:40 10° W 00:50:44 11° W 00:51:44 10° WNW visible
05 Aug 5.1 22:15:15 18° ESE 22:17:29 25° ENE 22:21:24 10° N visible
05 Aug 4.8 23:54:08 34° SW 23:55:06 37° W 23:59:31 10° NNW visible
06 Aug 3.9 22:58:36 42° SE 23:00:03 63° ENE 23:04:46 10° N visible
07 Aug 6.1 00:37:29 14° W 00:38:20 15° W 00:40:50 10° WNW visible
07 Aug 5.4 22:03:04 14° E 22:05:23 20° ENE 22:08:53 10° NNE visible
07 Aug 4.4 23:41:57 43° SW 23:42:51 49° W 23:47:29 10° NNW visible
